Hourly Data Report for October 16, 2016

All times are specified in Local Standard Time (LST). Add 1 hour to adjust for Daylight Saving Time where and when it is observed.

WINNIPEG A CS
MANITOBA

49°55'00.000" N
97°14'58.000" W
238.70 m
502S001
71849
XWG

Download Data

Hourly Data (October 2016)
Hourly Data Report for October 16, 2016
Temp Definition
°C
Dew Point Temp Definition
°C
Rel Hum Definition
%
Wind Dir Definition
10's deg

Wind Spd Definition
km/h
Visibility Definition
km
Stn Press Definition
kPa
Hmdx Definition


Wind Chill Definition


Weather Definition


TIME
00:00 -1.5 -3.3 87 1 9   98.35   -5 LegendNANA
01:00 -1.4 -3.1 88 4 11   98.36   -5 LegendNANA
02:00 -1.8 -3.2 90 4 10   98.35   -5 LegendNANA
03:00 -2.3 -3.5 91 5 5   98.38   -4 LegendNANA
04:00 -3.0 -4.0 93 7 7   98.42   -6 LegendNANA
05:00 -1.0 -1.9 94 8 13   98.36   -5 LegendNANA
06:00 -1.2 -2.2 93 9 12   98.40   -5 LegendNANA
07:00 -0.1 -1.3 91 8 16   98.29   -5 LegendNANA
08:00 1.5 -0.5 86 9 17   98.28     LegendNANA
09:00 3.4 0.6 82 10 20   98.20     LegendNANA
10:00 5.7 1.7 75 11 22   98.14     LegendNANA
11:00 7.5 2.8 72 11 24   98.01     LegendNANA
12:00 9.3 3.8 68 10 21   97.92     LegendNANA
13:00 10.8 4.1 63 12 22   97.90     LegendNANA
14:00 9.8 5.3 73 11 31   97.69     LegendNANA
15:00 9.5 5.1 74 11 31   97.55     LegendNANA
16:00 8.8 5.7 81 11 34   97.37     LegendNANA
17:00 8.2 6.1 87 11 38   97.23     LegendNANA
18:00 8.2 6.0 86 11 29   97.24     LegendNANA
19:00 7.8 6.2 90 10 27   97.14     LegendNANA
20:00 8.3 6.5 89 11 35   96.93     LegendNANA
21:00 8.9 7.1 89 12 34   96.76     LegendNANA
22:00 9.5 7.3 86 13 28   96.71     LegendNANA
23:00 9.8 7.3 85 14 30   96.56     LegendNANA

Notes on Data Quality.

Legend

  • E = Estimated
  • M = Missing
  • NA = Not Available
  • ‡ = Partner data that is not subject to review by the National Climate Archives
Date modified: